Location: Salisbury
(35.6710°N, 80.4740°W)
Time: 05:21:07
(UTC-05:00)

Tiangong 1 - Visible Passes

Search period start: 22 February 2018 00:00
Search period end: 04 March 2018 00:00
Orbit: 247 x 269 km, 42.8° (Epoch: 21 February)

Date Brightness Start Highest point End Pass type
(mag) Time Alt. Az. Time Alt. Az. Time Alt. Az.
27 Feb 2.6 19:12:47 10° S 19:13:45 13° SSE 19:13:45 13° SSE visible
28 Feb 1.7 19:04:19 10° SSW 19:06:13 23° SE 19:06:52 20° ESE visible
01 Mar 0.8 18:56:00 10° SW 18:58:10 40° SSE 18:59:39 16° E visible
02 Mar 0.1 18:47:38 10° WSW 18:49:54 77° SSE 18:52:06 10° ENE visible
03 Mar 0.6 18:39:11 10° WSW 18:41:25 60° NNW 18:43:40 10° ENE visible
